loading
DOY 203 | 2024-07-21T09:30:13Z

TITAN 3A DEB (TRUSS), 1000

Orbit data source: Space-Track

TITAN 3A DEB (TRUSS), 1000 is space debris originally from a launch on Thu, 11 Feb 1965 UTC launched from the Air Force Eastern Test Range (AFETR). Debris objects in space refer to the collection of defunct objects orbiting the Earth. Examples of debris include non-operational satellites, rocket bodies, and fragments generated from explosions, collisions, or faulty payload assembly.

Loading next visibility...
Loading greatness...
TITAN 3A DEB (TRUSS) details
NORAD ID1000
COSPAR ID
1965-008B
Orbit
Active
Last TLE update23 hours ago
Origin
Flag of USUSAF SSD (US)
ManufacturerMartin Marietta
BusTranstage
MotorUnknown
Mass1,950 kg wet, 1,950 kg dry
Launch date (UTC)
1965-02-11 (59 years ago)
Launch vehicleUnknown
Launch site
Air Force Eastern Test Range (AFETR)
Object type
Payload
Rocket body
Debris
Radar Cross Section3.2 m², Large (>1 m²)
Predictive object data (real-time)
Latitude-13.69171°
Longitude-64.3259°
Altitude2,801.894 km
Speed6.588 km/s
Apparent Right ascension04h 07m 47s
Apparent Declination-41° 34' 06"
Sunlit
Object is in daylight
Predictive observer data (real-time)
Local Sidereal Time22:28:19
Azimuth126.524° SE
Elevation-21.986°
Doppler factor1
Orbital elements
Apogee2,802.891 km
Perigee2,783.583 km
Semi-major axis9,171.374 km
Eccentricity0.0010526
Inclination32.138°
RAAN188.3666°
Arg. of periapsis24.1156°
True anomaly335.93415°
Mean anomaly335.9833°
Mean motion2.47111 °/min
BSTAR-0.0014824
Period145.68 mins
Definitive object data (Epoch: 2024-07-20T10:17:41.524Z)
Latitude
Longitude95.25304°
Altitude2,780.614 km
Speed6.602 km/s
True Right ascension12h 33m 27s
True Declination0° 00' 00"
Sunlit
Object was in daylight at TLE epoch
TLE from 23 hours ago
0 TITAN 3A DEB (TRUSS)
1 01000U 65008B   24202.42895283 -.00000003  00000-0 -14824-2 0  9997
2 01000  32.1380 188.3666 0010526  24.1156 335.9833  9.88889978148383
Epoch: 2024-07-20T10:17Z
No data available
Other satellites on launch #8 in the year 1965 (1965-02-11 UTC)

TITAN 3A DEB (TRUSS) Visibility forecast

Observer location: 39.9160978°, -105.1181434

TITAN 3A DEB (TRUSS) is not visible in the next 10 days
Span
Click to sort rows by Start time (UTC) header in descending order
Start Az.
Max El. time (UTC)
Max El. Az.
Max El.
End time (UTC)
End Az.